Regional Weather Roundup
Issued by NWS

Home | Current Version | Previous Version | Graphics & Text | Print | Product List | Glossary On
Versions: 1 2 3 4 5 6 7 8 9 10 11 12 13 14 15 16 17 18 19 20 21 22 23 24 25 26 27 28 29 30 31 32 33 34 35 36 37 38 39 40 41 42 43 44 45 46 47 48 49 50
000
ASUS43 KDTX 251101
RWRMI
MICHIGAN HOURLY REGIONAL WEATHER ROUNDUP
NATIONAL WEATHER SERVICE DETROIT/PONTIAC MI
700 AM EDT FRI JUL 25 2014

NOTE: "FAIR" INDICATES FEW OR NO CLOUDS BELOW 12,000 FEET WITH NO
SIGNIFICANT WEATHER AND/OR OBSTRUCTION TO VISIBILITY.

MIZ047>049-052>055-059>063-066>070-074>076-081>083-251200-
SOUTHEAST LOWER MICHIGAN

CITY           SKY/WX    TMP DP  RH WIND       PRES   REMARKS
ADRIAN         CLEAR     52  49  89 W3        30.10S
ALMA           PTCLDY    53  51  94 CALM      30.05R
ANN ARBOR      CLEAR     47  45  93 CALM      30.09R FOG
BAD AXE        CLEAR     51  48  89 S3        30.06F
CARO           PTCLDY    52  52  99 CALM      30.04F
DETROIT CITY   PTCLDY    62  50  64 SW5       30.08S
DETROIT        MOCLDY    55  51  86 S5        30.09S
FLINT          PTCLDY    55  50  83 S5        30.06F
GROSSE ILE     PTCLDY    59  54  82 W5        30.07F
HILLSDALE      PTCLDY    56  53  91 SW3       30.08F
HOWELL         CLEAR     49  49  97 S3        30.07F

CITY           SKY/WX    TMP DP  RH WIND       PRES   REMARKS
JACKSON        PTCLDY    51  49  92 CALM      30.07F
LAMBERTVILLE   CLEAR     52  50  93 CALM      30.10S FOG
LANSING        CLEAR     53  50  89 SE5       30.05F
LAPEER         FAIR      50  48  93 SE3       30.06F
MASON          CLEAR     48  47  95 S5        30.06F
MONROE         FOG       52  52 100 CALM      30.07F VSB 1
MT. CLEMENS    PTCLDY    58  51  75 SW7       30.06S
PONTIAC        PTCLDY    54  50  86 CALM      30.06F
PORT HOPE        N/A     56  48  74 SW7       30.03S
PORT HURON     PTCLDY    45  45 100 CALM      30.08F
TRI CITIES     MOCLDY    55  51  86 S6        30.04F
TROY           CLEAR     56  52  85 CALM      30.09S
SAGINAW HB     PTCLDY    54  54 100 S3        30.04F
$$
MIZ043>046-050>051-056>058-064>065-071>073-077>080-251200-
SOUTHWEST LOWER MICHIGAN

CITY           SKY/WX    TMP DP  RH WIND       PRES   REMARKS
BATTLE CREEK   PTCLDY    54  50  86 CALM      30.07F
BENTON HARBOR  CLEAR     49  48  97 CALM      30.06F
BIG RAPIDS     PTCLDY    49  49 100 CALM      30.04R
COLDWATER      PTCLDY    53  52  96 CALM      30.08S
FREMONT        FAIR      49  49  99 CALM      30.04S
HOLLAND        PTCLDY    53  49  86 CALM      30.07R
GRAND RAPIDS   PTCLDY    54  50  86 CALM      30.06S
IONIA          FAIR      54  50  85 S3        30.04F
KALAMAZOO      CLEAR     53  50  89 S3        30.07S
LUDINGTON      CLOUDY    60  49  68 S6        30.03R
MARSHALL       PTCLDY    51  50  97 CALM      30.07S
MOUNT PLEASANT CLEAR     51  49  96 CALM      30.03R
MUSKEGON       MOCLDY    57  51  80 S3        30.05R
SOUTH HAVEN    CLEAR     50  50  99 E3        30.05F
$$
MIZ016>042-251200-
NORTHERN LOWER MICHIGAN

CITY           SKY/WX    TMP DP  RH WIND       PRES   REMARKS
ALPENA         CLEAR     47  46  97 CALM      30.01F
BEAVER ISLAND  CLOUDY    60  53  76 SW7       29.98R
BELLAIRE       CLEAR     46  44  95 CALM      30.01R
CADILLAC       PTCLDY    48  47  95 CALM      30.03S
CHARLEVOIX     PTCLDY    52  51  97 SE5       30.02R
FRANKFORT      MOCLDY    61  50  67 S5        30.01R
GAYLORD        CLEAR     49  45  86 SW3       30.01F
GRAYLING       CLEAR     42  41  99 CALM      30.02S
HARBOR SPRINGS CLEAR     53  49  86 CALM      29.99S
HOUGHTON LAKE  CLEAR     44  43  96 CALM      30.03F
MANISTEE       CLOUDY    52  48  87 SE3       30.03R
OSCODA         CLEAR     50  47  90 CALM      30.01F
PELLSTON       CLEAR     44  43  96 CALM      29.98F
ROGERS CITY    CLEAR     53  49  87 SW8       30.00F
TRAVERSE CITY  MOCLDY    57  46  66 CALM      29.99R
$$
MIZ007>008-015-251200-
EASTERN UPPER MICHIGAN

CITY           SKY/WX    TMP DP  RH WIND       PRES   REMARKS
KINROSS        PTCLDY    55  54  94 S6        29.95F
MACKINAC ISLAN CLEAR     58  53  84 SW10      29.96F
NEWBERRY       CLOUDY    55  49  81 SW12      29.94S
S. S. MARIE    PTCLDY    52  50  93 E5        29.95F
MUNISING         N/A     59  48  67 SW10      29.92R
$$
MIZ004>006-011>014-085-251200-
CENTRAL UPPER MICHIGAN

CITY           SKY/WX    TMP DP  RH WIND       PRES   REMARKS
MANISTIQUE     CLOUDY    57  55  91 SW6       29.95R
ESCANABA       CLOUDY    57  46  67 CALM      29.95S
MENOMINEE      CLOUDY    61  48  63 W6        29.96S
SAWYER-GWINN   CLEAR     52  50  93 CALM      29.95S
$$
MIZ001>003-009>011-084-251200-
WESTERN UPPER MICHIGAN

CITY           SKY/WX    TMP DP  RH WIND       PRES   REMARKS
IRON MOUNTAIN  CLOUDY    59  54  83 SE3       29.94F
HOUGHTON       CLEAR     52  49  89 CALM      29.88F
COPPER HARBOR    N/A     62  51  67 VRB5      29.87S
$$

ABBREVIATIONS USED IN REMARKS
   TC - TEMPERATURE IN CELSIUS
  WCI - WIND CHILL INDEX
   HX - HEAT INDEX
  VSB - VISIBILITY




USA.gov is the U.S. government's official web portal to all federal, state and local government web resources and services.